This is the latest recevied weather packets stored in our database for station/object KF6YUA. If no packets are shown the sender has not sent any weather packets the latest 10 day(s).
| Time | Temp. | Humidity | Pressure | Rain* | Wind** | Luminosity | Snow |
|---|---|---|---|---|---|---|---|
| 1778125308 | 12.78° C | 92% | 1020.1 hPa | 0 mm | - | 0 W/m² | - |
| 1778125007 | 12.78° C | 91% | 1020.2 hPa | 0 mm | - | 0 W/m² | - |
| 1778124703 | 13.33° C | 91% | 1020.3 hPa | 0 mm | - | 0 W/m² | - |
| 1778124401 | 13.33° C | 91% | 1020.1 hPa | 0 mm | - | 0 W/m² | - |
| 1778124097 | 13.33° C | 91% | 1020.1 hPa | 0 mm | - | 0 W/m² | - |
| 1778123794 | 13.33° C | 90% | 1020.1 hPa | 0 mm | - | 0 W/m² | - |
| 1778123490 | 13.89° C | 90% | 1020.1 hPa | 0 mm | - | 0 W/m² | - |
| 1778123187 | 13.89° C | 89% | 1019.9 hPa | 0 mm | - | 1 W/m² | - |
| 1778122885 | 13.89° C | 89% | 1020.1 hPa | 0 mm | - | 1 W/m² | - |
| 1778122582 | 13.89° C | 88% | 1020.2 hPa | 0 mm | - | 9 W/m² | - |
| 1778122279 | 14.44° C | 87% | 1019.9 hPa | 0 mm | - | 4 W/m² | - |
| 1778121977 | 14.44° C | 86% | 1020 hPa | 0 mm | - | 5 W/m² | - |
| 1778121674 | 15° C | 86% | 1020 hPa | 0 mm | - | 9 W/m² | - |
| 1778121369 | 15° C | 85% | 1019.8 hPa | 0 mm | - | 11 W/m² | - |
| 1778121067 | 15° C | 84% | 1020 hPa | 0 mm | - | 12 W/m² | - |
| 1778120764 | 15.56° C | 83% | 1019.9 hPa | 0 mm | - | 16 W/m² | - |
| 1778120459 | 15.56° C | 82% | 1020.1 hPa | 0 mm | - | 18 W/m² | - |
| 1778120155 | 15.56° C | 82% | 1020 hPa | 0 mm | - | 18 W/m² | - |
| 1778119852 | 15.56° C | 82% | 1019.8 hPa | 0 mm | - | 21 W/m² | - |
| 1778119550 | 16.11° C | 81% | 1020.2 hPa | 0 mm | - | 23 W/m² | - |
| 1778119246 | 16.11° C | 81% | 1020 hPa | 0 mm | - | 24 W/m² | - |
| 1778118944 | 16.11° C | 80% | 1020 hPa | 0 mm | - | 26 W/m² | - |
| 1778118641 | 16.67° C | 80% | 1020.1 hPa | 0 mm | - | 27 W/m² | - |
| 1778118338 | 16.67° C | 79% | 1020.2 hPa | 0 mm | - | 28 W/m² | - |
| 1778118033 | 16.67° C | 79% | 1020 hPa | 0 mm | - | 29 W/m² | - |
* Rain latest hour (hover to see other rain measurements)
** Current wind speed in m/s (hover to see current wind gust speed)